Flag for Canada Weather past 2 weeks in Oshawa, Ontario, Canada

Now
63 °F

Passing clouds.


Feels Like: 63 °F
Forecast: 65 / 82 °F
Wind: 3 mph from North

Location: Toronto Buttonville

Current Time: Sep 5, 2015 at 7:09:57 AM

Latest Report: Sep 5, 2015 at 6:00 AM


Visibility: 15 mi

Pressure: 30.16 "Hg

Humidity: 77%

Dew point: 55 °F

Location of OshawaLocation

Historic Weather in Oshawa — Graph

°F

Oshawa temperature yesterday

Maximum temperature yesterday: 81 °F (at 12:00 PM)
Minimum temperature yesterday: 68 °F (at 6:00 AM)
Average temperature yesterday: 74 °F

Past Weeks' High & Low Weather Summary

 TemperatureHumidityPressure
High90 °F (Sep 2, 3:00 PM)100% (Aug 29, 6:00 AM)30.23 "Hg (Aug 29, 6:00 AM)
Low50 °F (Aug 28, 5:00 AM)36% (Aug 22, 3:00 PM)29.75 "Hg (Aug 24, 5:00 AM)
Average68 °F73%30.03 "Hg
* Reported Aug 21 5:00 AM — Sep 5 5:00 AM, Oshawa, Weather by CustomWeather, © 2015

Note: Actual official high and low records may vary slightly from our data, if they occured in-between our weather recording intervals... More about our weather records

Advertising

Oshawa weather history for previous 24 hours

 ConditionsComfort  
Time TempWeatherWind HumidityBarometerVisibility
5:00 AM
Sat, Sep 5
64 °FClear.3 mph73%30.15 "Hg15 mi
4:00 AM66 °FClear.3 mph68%30.14 "Hg15 mi
3:00 AM66 °FClear.2 mph64%30.14 "Hg15 mi
2:00 AM68 °FClear.2 mph60%30.14 "Hg15 mi
1:00 AM68 °FClear.7 mph56%30.14 "Hg15 mi
12:00 AM70 °FClear.9 mph53%30.15 "Hg15 mi
11:00 PM
Fri, Sep 4
70 °FClear.6 mph57%30.16 "Hg15 mi
10:00 PM70 °FClear.6 mph60%30.16 "Hg15 mi
9:00 PM72 °FClear.5 mph50%30.16 "Hg15 mi
8:00 PM73 °FPassing clouds.10 mph41%30.13 "Hg15 mi
7:00 PM75 °FPassing clouds.10 mph47%30.11 "Hg15 mi
6:00 PM79 °FPassing clouds.9 mph42%30.11 "Hg15 mi
5:00 PM81 °FPassing clouds.13 mph39%30.10 "Hg15 mi
4:00 PM81 °FPassing clouds.16 mph39%30.10 "Hg15 mi
3:00 PM81 °FPassing clouds.15 mph39%30.11 "Hg15 mi
2:00 PM81 °FPassing clouds.15 mph39%30.11 "Hg15 mi
1:00 PM81 °FPassing clouds.17 mph42%30.12 "Hg15 mi
12:00 PM81 °FPassing clouds.15 mph45%30.12 "Hg15 mi
11:00 AM79 °FScattered clouds.13 mph58%30.11 "Hg15 mi
10:00 AM75 °FPartly sunny.13 mph61%30.11 "Hg15 mi
9:00 AM73 °FBroken clouds.6 mph69%30.10 "Hg15 mi
8:00 AM70 °FPartly sunny.7 mph78%30.09 "Hg15 mi
7:00 AM68 °FPassing clouds.3 mph83%30.07 "Hg15 mi
Weather by CustomWeather, © 2015

See weather overviewHow to use our weather pages